Regional Weather Roundup
Issued by NWS

Home | Current Version | Previous Version | Graphics & Text | Print | Product List | Glossary Off
Versions: 1 2 3 4 5 6 7 8 9 10 11 12 13 14 15 16 17 18 19 20 21 22 23 24 25 26 27 28 29 30 31 32 33 34 35 36 37 38 39 40 41 42 43 44 45 46 47 48 49 50

000
ASUS43 KLSX 220107
RWRMO

WEATHER SUMMARY FOR MISSOURI
NATIONAL WEATHER SERVICE SPRINGFIELD MO
800 PM CDT THU AUG 21 2014

NOTE: "FAIR" INDICATES FEW OR NO CLOUDS BELOW 12,000 FEET WITH NO
       SIGNIFICANT WEATHER AND/OR OBSTRUCTIONS TO VISIBILITY.
       CURRENT SKY AND/OR WEATHER CONDITIONS ARE NOT AVAILABLE FOR
       CHILLICOTHE AND FARMINGTON.

MOZ001>031-035>038-043-044-053-054-220200-
...NORTHERN AND WESTERN MISSOURI...

CITY           SKY/WX    TMP DP  RH WIND       PRES   REMARKS
KANSAS CTY INT PTCLDY    87  72  60 S12       29.85S HX  93
KANSAS C DTWN  CLEAR     91  72  53 S9        29.84R HX  98
LEE`S SUMMIT   CLEAR     89  71  55 S12       29.87S HX  95
ST JOSEPH      CLEAR     85  76  74 S7        29.82S HX  94
CHILLICOTHE      N/A     86  77  74 S5        29.86S HX  97
KIRKSVILLE     PTCLDY    80  76  87 S6        29.89F

$$
MOZ066>068-077>081-088>096-101>105-220200-
...SOUTHWEST MISSOURI...

CITY           SKY/WX    TMP DP  RH WIND       PRES   REMARKS
SPRINGFIELD    CLEAR     87  66  49 SW9       29.97R
JOPLIN         CLEAR     87  69  54 S13       29.96R HX  91

$$
MOZ032>034-039>042-045>050-055>058-069>072-220200-
...CENTRAL MISSOURI...

CITY           SKY/WX    TMP DP  RH WIND       PRES   REMARKS
COLUMBIA       MOCLDY    87  73  62 S5        29.90F HX  94
JEFFERSON CITY PTCLDY    86  74  67 E5        29.88S HX  94
ROLLA          CLEAR     83  69  62 S8        29.93S
SEDALIA        MOCLDY    87  74  64 S5        29.89F HX  95
WHITEMAN AFB   PTCLDY    83  70  63 S8        29.88S
OSAGE BEACH    PTCLDY    88  70  55 S3        29.91S HX  92

$$
MOZ051-052-059>065-220200-
...EAST CENTRAL MISSOURI...

CITY           SKY/WX    TMP DP  RH WIND       PRES   REMARKS
ST LOUIS INTL  MOCLDY    92  71  50 S5        29.92S HX  98
SPIRIT OF STL  PTCLDY    83  78  85 CALM      29.89S HX  93
ST CHARLES     PTCLDY    82  77  84 NE3       29.89S HX  90

$$
MOZ072>076-082>087-097>100-106>115-220200-
...SOUTH CENTRAL AND SOUTHEAST MISSOURI...

CITY           SKY/WX    TMP DP  RH WIND       PRES   REMARKS
CAPE GIRARDEAU MOCLDY    84  75  74 S8        29.96S HX  92
FARMINGTON     PTCLDY    86  73  66 S9        29.97R HX  93
POPLAR BLUFF   MOCLDY    85  73  67 S7        29.95F HX  91
WEST PLAINS    PTCLDY    85  66  53 S5        30.00S

$$



USA.gov is the U.S. government's official web portal to all federal, state and local government web resources and services.